International Virtual Aviation Organisation

Russian Federation and Kazakhstan MCD

 

Карточка аэропорта UWGG

Внимание!
Информация на этой странице в стадии наполнения.
Если вы не увидели какой-то информации, или заметили неточность - пожалуйста сообщите нам!
Спасибо!
Команда RU-STAFF
Название аэропортаСтригино
Название аэропорта (англ.)Strigino
Превышение256 ft. (78 m.)
Координаты56°13.8', 43°47.202'
Высота перехода900 m
Эшелон переходаBy ATC
Коды ответчика2120-2147
Зона ОрВДМосква РПИ (UUWV)
Данные METARUWGG 270330Z 15004MPS 2500 -SN OVC009 M02/M03 Q1015 R18L/490234 TEMPO 1200 SHSN BKN004CB
Проноз погоды (TAF)UWGG 270150Z 2703/2803 14006G12MPS 6000 -SN BKN011 TXM00/2712Z TNM02/2706Z TEMPO 2703/2715 1200 SHSN BKN004CB PROB40 TEMPO 2703/2715 -FZRA
NOTAMshow/hide NOTAM
AWOS   TABLE

Информация о ВПП

ВПП Длина ВПП (м.) Покрытие Курс ВПП Частота ILS
18R2806Асфальтобетон179109.9
36L2806Асфальтобетон359109.5
18L3000Цементобетон179108.1
36R3000Цементобетон359110.5

Диспетчерские позиции

Позывной Наименование органа УВД Частота
UWGG_APPНижний-Подход124.700
UWGG_R_APPНижний-Круг120.800
UWGG_TWRНижний-Вышка120.400
UWGG_GNDНижний-Руление121.800



Спутниковое изображение